Home > Weather > Butte > Past weeks

Flag for USA Past Weather in Butte, Montana, USA — Yesterday and Last 2 Weeks

Now
51 °F

Clear.


Feels Like: 50 °F
Forecast: 34 / 65 °F
Wind: 5 mph from Southwest

Location: Mooney Airport

Current Time: Aug 26, 2016 at 1:09:40 AM

Latest Report: Aug 25, 2016 at 11:53 PM


Visibility: 10 mi

Pressure: 30.12 "Hg (24.59 "Hg at 1685m altitude)

Humidity: 44%

Dew Point: 30 °F

Location of ButteLocation

Past Weather in Butte — Graph

°F

Butte Temperature Yesterday

Maximum temperature yesterday: 66 °F (at 4:53 PM)
Minimum temperature yesterday: 31 °F (at 5:53 AM)
Average temperature yesterday: 51 °F

High & Low Weather Summary for the Past Weeks

 TemperatureHumidityPressure
High87 °F (Aug 16, 4:53 PM)90% (Aug 11, 6:53 AM)30.31 "Hg (Aug 11, 6:53 AM)
Low31 °F (Aug 25, 5:53 AM)8% (Aug 22, 3:53 PM)29.74 "Hg (Aug 21, 5:53 PM)
Average60 °F43%30.05 "Hg
* Reported Aug 10 11:53 PM — Aug 25 11:53 PM, Butte, Weather by CustomWeather, © 2016

Note: Actual official high and low records may vary slightly from our data, if they occured in-between our weather recording intervals... More about our weather records

Advertising

Butte Weather History for the Previous 24 Hours

Scroll right to see more
 ConditionsComfort  
Time TempWeatherWind HumidityBarometerVisibility
11:53 PM
Thu, Aug 25
51 °FClear.5 mph44%30.12 "Hg10 mi
10:53 PM56 °FClear.6 mph39%30.11 "Hg10 mi
9:53 PM58 °FClear.13 mph36%30.11 "Hg10 mi
8:53 PM59 °FSunny.5 mph33%30.11 "Hg10 mi
7:53 PM62 °FScattered clouds.9 mph29%30.12 "Hg10 mi
6:53 PM63 °FOvercast.13 mph27%30.12 "Hg10 mi
5:53 PM66 °FPartly sunny.3 mph23%30.11 "Hg10 mi
4:53 PM66 °FSunny.3 mph21%30.12 "Hg10 mi
3:53 PM65 °FSunny.5 mph25%30.13 "Hg10 mi
2:53 PM65 °FSunny.5 mph24%30.15 "Hg10 mi
1:53 PM62 °FSunny.7 mph27%30.17 "Hg10 mi
12:53 PM61 °FSunny.No wind30%30.18 "Hg10 mi
11:53 AM58 °FSunny.6 mph35%30.20 "Hg10 mi
10:53 AM54 °FSunny.No wind43%30.23 "Hg10 mi
9:53 AM50 °FSunny.No wind52%30.25 "Hg10 mi
8:53 AM42 °FSunny.No wind65%30.28 "Hg10 mi
7:53 AM33 °FSunny.5 mph82%30.30 "Hg10 mi
6:53 AM31 °FClear.5 mph82%30.30 "Hg10 mi
5:53 AM31 °FClear.5 mph82%30.29 "Hg10 mi
4:53 AM34 °FClear.5 mph79%30.29 "Hg10 mi
3:53 AM37 °FClear.6 mph73%30.29 "Hg10 mi
2:53 AM36 °FClear.5 mph75%30.30 "Hg10 mi
1:53 AM39 °FClear.6 mph67%30.31 "Hg10 mi
Weather by CustomWeather, © 2016

See weather overviewHow to use our weather pages